Location: Gombori
(14.9797°N, 2.9419°W)
Time: 04:39:50
(UTC+00:00)

COSMOS 1275 DEB - Pass Details

Date: 03 June 2022
Orbit: 837 x 941 km, 83.0° (Epoch: 29 June)

Event Time Altitude Azimuth Distance (km) Brightness Sun altitude
Exits shadow 22:24:59 12° 9° (N) 2,516 ? -44.6°
Drops below altitude 10° 22:25:20 10° 8° (N) 2,643 ? -44.7°
Sets 22:27:48 0° 7° (N) 3,580 ? -45.0°
